This demonstration page uses our WeatherBlox Daily Observations layout. Learn more.

Left ArrowRight Arrow

Hourly Observations for January 16, 2019

Temp ( °F °C ) Dew Point ( °F °C ) Humidity (%) Winds ( mph kmh ) Pressure ( in mb ) Visibility ( mi km ) Precip ( " mm )
12:51 am 00:51 Mostly Cloudy 47 8.3 43 6.1 86 86 ENE 3 6 30.10 1019 10 16 N/A
1:51 am 01:51 Cloudy 46 7.8 43 6.1 89 89 N N/A 30.11 1020 10 16 N/A
2:51 am 02:51 Mostly Cloudy 45 7.2 42 5.6 90 90 N N/A 30.12 1020 10 16 N/A
3:51 am 03:51 Mostly Cloudy 43 6.1 41 5 93 93 NE 5 7 30.14 1021 10 16 N/A
4:51 am 04:51 Clear 42 5.6 40 4.4 92 92 E 5 7 30.14 1021 10 16 N/A
5:51 am 05:51 Clear 40 4.4 39 3.9 97 97 E 6 9 30.15 1021 10 16 N/A
6:51 am 06:51 Clear 39 3.9 38 3.3 96 96 E 6 9 30.19 1022 10 16 N/A
7:51 am 07:51 Sunny 42 5.6 40 4.4 92 92 ESE 6 9 30.20 1023 10 16 N/A
8:51 am 08:51 Sunny 47 8.3 42 5.6 83 83 SE 7 11 30.20 1023 10 16 N/A
9:51 am 09:51 Sunny 51 10.6 43 6.1 74 74 SSE 3 6 30.22 1023 10 16 N/A
10:51 am 10:51 Sunny 56 13.3 43 6.1 62 62 N N/A 30.21 1023 10 16 N/A
11:51 am 11:51 Sunny 58 14.4 44 6.7 60 60 N N/A 30.19 1023 10 16 N/A
12:51 pm 12:51 Sunny 62 16.7 41 5 46 46 NW 8 13 30.15 1021 10 16 N/A
1:51 pm 13:51 Sunny 63 17.2 41 5 45 45 WNW 10 17 30.13 1020 10 16 N/A
2:51 pm 14:51 Sunny 63 17.2 42 5.6 47 47 WNW 10 17 30.13 1020 10 16 N/A
3:51 pm 15:51 Sunny 62 16.7 43 6.1 50 50 WSW 10 17 30.14 1021 10 16 N/A
4:51 pm 16:51 Sunny 61 16.1 43 6.1 52 52 W 8 13 30.14 1021 10 16 N/A
5:51 pm 17:51 Clear 56 13.3 43 6.1 62 62 W 7 11 30.15 1021 10 16 N/A
6:51 pm 18:51 Clear 53 11.7 42 5.6 66 66 NNW 6 9 30.19 1022 10 16 N/A
7:51 pm 19:51 Clear 50 10 41 5 71 71 N 3 6 30.20 1023 10 16 N/A
8:51 pm 20:51 Clear 45 7.2 40 4.4 83 83 ENE 6 9 30.20 1023 10 16 N/A
9:51 pm 21:51 Clear 45 7.2 41 5 86 86 ESE 6 9 30.19 1023 10 16 N/A
10:51 pm 22:51 Clear 43 6.1 39 3.9 86 86 E 6 9 30.21 1023 10 16 N/A
11:51 pm 23:51 Clear 42 5.6 38 3.3 85 85 S 5 7 30.21 1023 10 16 N/A

Powered by AerisWeather